Hourly Data Report for February 04, 2017

All times are specified in Local Standard Time (LST). Add 1 hour to adjust for Daylight Saving Time where and when it is observed.

ST LEONARD CS
NEW BRUNSWICK

47°09'28.050" N
67°49'55.014" W
245.00 m
810I001
71019
WIY

Download Data

Hourly Data (February 2017)
Hourly Data Report for February 4, 2017
Temp Definition
°C
Dew Point Temp Definition
°C
Rel Hum Definition
%
Wind Dir Definition
10's deg

Wind Spd Definition
km/h
Visibility Definition
km
Stn Press Definition
kPa
Hmdx Definition


Wind Chill Definition


Weather Definition


TIME
00:00 -18.3 -20.3 84 1 6   98.43   -23 LegendNANA
01:00 -20.4 -22.0 86 34 2   98.47   -22 LegendNANA
02:00 -21.9 -23.9 84 33 3   98.46   -25 LegendNANA
03:00 -24.4 -26.4 83 31 5   98.47   -29 LegendNANA
04:00 -24.8 -26.4 87 15 5   98.48   -30 LegendNANA
05:00 -26.2 -28.2 83 19 2   98.48   -28 LegendNANA
06:00 -27.0 -29.2 82 17 3   98.49   -30 LegendNANA
07:00 -25.4 -27.2 85 21 6   98.50   -31 LegendNANA
08:00 -25.6 -27.5 84 18 3   98.53   -29 LegendNANA
09:00 -22.2 -23.9 86 17 5   98.53   -27 LegendNANA
10:00 -20.6 -22.9 82 19 6   98.53   -26 LegendNANA
11:00 -18.3 -21.4 77 29 8   98.52   -24 LegendNANA
12:00 -16.7 -20.7 72 29 17   98.54   -26 LegendNANA
13:00 -15.7 -20.5 67 30 21   98.50   -25 LegendNANA
14:00 -14.7 -20.1 63 30 16   98.46   -23 LegendNANA
15:00 -14.3 -19.7 63 30 17   98.45   -23 LegendNANA
16:00 -14.4 -19.8 63 30 13   98.47   -22 LegendNANA
17:00 -14.3 -19.2 66 35 5   98.50   -18 LegendNANA
18:00 -18.3 -20.5 82 8 4   98.53   -22 LegendNANA
19:00 -17.9 -19.4 88 16 5   98.56   -22 LegendNANA
20:00 -20.3 -22.1 86 14 7   98.57   -26 LegendNANA
21:00 -22.6 -24.4 85 6 3   98.58   -25 LegendNANA
22:00 -19.1 -20.5 88 1 7   98.64   -25 LegendNANA
23:00 -21.5 -23.2 86 7 3   98.66   -24 LegendNANA

Notes on Data Quality.

Legend

  • E = Estimated
  • M = Missing
  • NA = Not Available
  • ‡ = Partner data that is not subject to review by the National Climate Archives
Date modified: